Tracking 32427 objects as of 10-Dec-2025
HD Live streaming from Space Station
objects crossing your sky now

COSMOS 540

Track COSMOS 540 now!
10-day predictions
COSMOS 540 is classified as:


NORAD ID: 6323
Int'l Code: 1972-104A
Perigee: 762.3 km
Apogee: 786.0 km
Inclination: 74.1 °
Period: 100.2 minutes
Semi major axis: 7145 km
RCS: 2.1717 m2 (large)
Launch date: December 25, 1972
Source: Commonwealth of Independent States (former USSR) (CIS)
Launch site: PLESETSK MISSILE AND SPACE COMPLEX (PKMTR)
Your satellite tracking list
Your tracking list is empty




NASA's NSSDC Master Catalog

Two Line Element Set (TLE):
1 06323U 72104A   25344.56868231  .00000327  00000-0  11777-3 0  9993
2 06323  74.0812  85.8139 0016603 100.3624 259.9403 14.37430969771917
Source of the keplerian elements: AFSPC